Regional Weather Roundup
Issued by NWS

Home | Current Version | Previous Version | Graphics & Text | Print | Product List | Glossary On
Versions: 1 2 3 4 5 6 7 8 9 10 11 12 13 14 15 16 17 18 19 20 21 22 23 24 25 26 27 28 29 30 31 32 33 34 35 36 37 38 39 40 41 42 43 44 45 46 47 48 49 50
000
ASUS43 KOAX 260510
RWRNE

WEATHER ROUNDUP FOR NEBRASKA
NATIONAL WEATHER SERVICE OMAHA NE
1200 AM CDT SAT MAY 26 2018

NOTES: SATELLITE DATA IS BEING USED TO AUGMENT CLOUD COVER ABOVE
       12000 FEET.
       "FAIR" INDICATES FEW OR NO CLOUDS BELOW 12,000 FEET WITH NO
       SIGNIFICANT WEATHER AND/OR OBSTRUCTIONS TO VISIBILITY.


NEZ001>004-019>022-054>056-260600-
NEBRASKA PANHANDLE

CITY           SKY/WX    TMP DP  RH WIND       PRES   REMARKS
SCOTTSBLUFF    CLEAR     68  56  65 CALM      29.93S
ALLIANCE       CLEAR     63  54  72 E3        29.92S
CHADRON        CLEAR     60  57  89 CALM      29.88F
GORDON         FAIR      60  55  81 CALM      29.92S
KIMBALL        CLEAR     61  50  67 SE7       30.00S
SIDNEY         CLEAR     62  50  64 CALM      29.96F
$$

NEZ057>060-069>072-079>082-260600-
SOUTHWEST NEBRASKA

CITY           SKY/WX    TMP DP  RH WIND       PRES   REMARKS
NORTH PLATTE   CLEAR     63  58  83 NE3       29.87R
IMPERIAL       CLEAR     66  51  58 SE5       29.90S
LEXINGTON      CLEAR     66  60  79 N5        29.84S
MCCOOK         CLEAR     68  57  68 W8        29.85S
OGALLALA       CLEAR     60  55  82 N3        29.90S
$$

NEZ005>010-023>029-035>040-094-260600-
NORTH CENTRAL NEBRASKA

CITY           SKY/WX    TMP DP  RH WIND       PRES   REMARKS
VALENTINE      CLEAR     65  60  84 W5        29.86R
AINSWORTH      CLEAR     68  63  82 W3        29.86R
BROKEN BOW     CLEAR     68  61  78 CALM      29.84S
O`NEILL        CLEAR     74  61  62 CALM      29.82S
ORD            CLEAR     68  61  78 CALM      29.81R
THEDFORD       CLEAR     67  59  76 CALM      29.89S
$$

NEZ041-046>049-061>064-073>077-083>087-260600-
SOUTH CENTRAL NEBRASKA

CITY           SKY/WX    TMP DP  RH WIND       PRES   REMARKS
GRAND ISLAND   CLEAR     75  60  59 SW6       29.80S
AURORA         CLEAR     73  60  63 SW8       29.80S
HASTINGS       CLEAR     79  63  57 SW8       29.82S
HEBRON         CLEAR     77  65  67 SW9       29.80S
HOLDREGE       CLEAR     75  59  57 S7        29.83S
KEARNEY        CLEAR     71  62  73 SW8       29.82S
YORK           PTCLDY    73  63  68 S7        29.80R
$$

NEZ011>018-030>034-042>045-260600-
NORTHEAST NEBRASKA

CITY           SKY/WX    TMP DP  RH WIND       PRES   REMARKS
NORFOLK        CLEAR     69  59  70 CALM      29.78R
ALBION         CLEAR     67  64  90 CALM      29.80S
BLAIR          PTCLDY    76  62  61 CALM      29.76R
COLUMBUS       CLEAR     69  61  75 CALM      29.78S
FREMONT        CLEAR     71  62  71 CALM      29.76S
TEKAMAH        PTCLDY    73  65  75 CALM      29.74R
WAYNE          CLEAR     67  57  69 S3        29.77S
$$

NEZ050>053-065>068-078-088>093-260600-
SOUTHEAST NEBRASKA

CITY           SKY/WX    TMP DP  RH WIND       PRES   REMARKS
LINCOLN        PTCLDY    75  57  53 CALM      29.77S
OMAHA EPPLEY   PTCLDY    74  64  71 W3        29.73S
BEATRICE       PTCLDY    80  66  61 SW7       29.78S
FALLS CITY     CLEAR     78  65  63 S10       29.77S
NEBRASKA CITY  PTCLDY    76  63  63 SW8       29.77R
PLATTSMOUTH    PTCLDY    79  60  52 SW7       29.75S
$$

NEZ044-045-051>053-067-260600-
OMAHA AREA

CITY           SKY/WX    TMP DP  RH WIND       PRES   REMARKS
OMAHA EPPLEY   PTCLDY    74  64  71 W3        29.73S
BLAIR          PTCLDY    76  62  61 CALM      29.76R
FREMONT        CLEAR     71  62  71 CALM      29.76S
MILLARD        CLOUDY    74  67  80 CALM      29.75R
OFFUTT AFB     PTCLDY    71  63  77 S6        29.73S
PLATTSMOUTH    PTCLDY    79  60  52 SW7       29.75S
WAHOO          FAIR      77  54  45 SW3       29.76R
$$




USA.gov is the U.S. government's official web portal to all federal, state and local government web resources and services.